Surface/Precipitation History
07/04/2015 07:20  to  7/5/2015 07:20
Change End Date:
Date/Time
(MDT)
Sf
Temp Chem Water Layer Surface Precipitation
Sfc Pvt Sub Frz Factor Pct Dpth DpthThk IcePct Cond Salin FI Type Intens Accum Rate
07/05/2015 07:05 Wet 55.4F - 81F 32F 5 0% 0.00 in - 0% 0 mhos 2 - Yes - - -
07/05/2015 06:56 Wet 56.1F - 81F 32F 5 0% 0.00 in - 0% 0 mhos 2 - Yes - - -
07/05/2015 06:50 Wet 56.3F - 81F 32F 5 0% 0.00 in - 0% 0 mhos 2 - Yes - - -
07/05/2015 06:46 Wet 56.1F - 81F 32F 5 0% 0.00 in - 0% 0 mhos 1 - Yes - - -
07/05/2015 06:36 Wet 56.5F - 81F 32F 5 0% 0.00 in - 0% 0 mhos 1 - Yes - - -
07/05/2015 06:35 Wet 56.7F - 81F 32F 5 0% 0.00 in - 0% 0 mhos 1 - Yes - - -
07/05/2015 06:26 Wet 56.7F - 81F 32F 5 0% 0.00 in - 0% 0 mhos 1 - Yes - - -
07/05/2015 06:20 Wet 56.5F - 82F 32F 5 0% 0.00 in - 0% 0 mhos 1 - Yes - - -
07/05/2015 06:16 Wet 56.3F - 82F 32F 5 0% 0.00 in - 0% 0 mhos 1 - Yes - - -
07/05/2015 06:06 Wet 56.3F - 82F 32F 5 0% 0.00 in - 0% 0 mhos 3 - Yes - - -
07/05/2015 06:05 Wet 56.3F - 82F 32F 5 0% 0.00 in - 0% 0 mhos 3 - Yes - - -
07/05/2015 05:56 Wet 56.1F - 82F 32F 5 0% 0.00 in - 0% 0 mhos 1 - Yes - - -
07/05/2015 05:50 Wet 56.3F - 82F 32F 5 0% 0.00 in - 0% 0 mhos 2 - Yes - - -
07/05/2015 05:46 Wet 56.3F - 82F 32F 5 0% 0.00 in - 0% 0 mhos 1 - Yes - - -
07/05/2015 05:36 Wet 56.3F - 82F 32F 5 0% 0.00 in - 0% 0 mhos 2 - Yes - - -
Date/Time
(MDT)
Sf
Temp Chem Water Layer Surface Precipitation
Sfc Pvt Sub Frz Factor Pct Dpth DpthThk IcePct Cond Salin FI Type Intens Accum Rate
07/05/2015 05:35 Wet 56.3F - 82F 32F 5 0% 0.00 in - 0% 0 mhos 2 - Yes - - -
07/05/2015 05:26 Wet 56.8F - 82F 32F 5 0% 0.00 in - 0% 0 mhos 2 - Yes - - -
07/05/2015 05:20 Wet 56.7F - 82F 32F 5 0% 0.00 in - 0% 0 mhos 2 - Yes - - -
07/05/2015 05:16 Wet 57.0F - 82F 32F 5 0% 0.00 in - 0% 0 mhos 2 - Yes - - -
07/05/2015 05:06 Wet 56.7F - 82F 32F 5 0% 0.00 in - 0% 0 mhos 2 - Yes - - -
07/05/2015 05:05 Wet 56.7F - 82F 32F 5 0% 0.00 in - 0% 0 mhos 2 - Yes - - -
07/05/2015 04:56 Wet 57.0F - 83F 32F 5 0% 0.00 in - 0% 0 mhos 2 - Yes - - -
07/05/2015 04:50 Wet 56.7F - 83F 32F 5 0% 0.00 in - 0% 0 mhos 2 - Yes - - -
07/05/2015 04:46 Wet 56.8F - 83F 32F 5 0% 0.00 in - 0% 0 mhos 2 - Yes - - -
07/05/2015 04:36 Wet 56.7F - 83F 32F 5 0% 0.00 in - 0% 0 mhos 1 - Yes - - -
07/05/2015 04:35 Wet 56.7F - 83F 32F 5 0% 0.00 in - 0% 0 mhos 1 - Yes - - -
07/05/2015 04:26 Wet 56.7F - 83F 32F 5 0% 0.00 in - 0% 0 mhos 2 - Yes - - -
07/05/2015 04:20 Wet 57.0F - 83F 32F 5 0% 0.00 in - 0% 0 mhos 3 - Yes - - -
07/05/2015 04:15 Wet 57.0F - 83F 32F 5 0% 0.00 in - 0% 0 mhos 3 - Yes - - -
07/05/2015 04:05 Wet 57.4F - 83F 32F 5 0% 0.00 in - 0% 0 mhos 3 - Yes - - -
Date/Time
(MDT)
Sf
Temp Chem Water Layer Surface Precipitation
Sfc Pvt Sub Frz Factor Pct Dpth DpthThk IcePct Cond Salin FI Type Intens Accum Rate
07/05/2015 04:05 Wet 57.6F - 83F 32F 5 0% 0.00 in - 0% 0 mhos 3 - Yes - - -
07/05/2015 03:55 Wet 57.6F - 83F 32F 5 0% 0.00 in - 0% 0 mhos 3 - Yes - - -
07/05/2015 03:50 Wet 58.1F - 83F 32F 5 0% 0.00 in - 0% 0 mhos 5 - Yes - - -
07/05/2015 03:45 Wet 57.9F - 83F 32F 5 0% 0.00 in - 0% 0 mhos 4 - Yes - - -
07/05/2015 03:35 Wet 57.6F - 84F 32F 5 0% 0.00 in - 0% 0 mhos 4 - Yes - - -
07/05/2015 03:35 Wet 57.6F - 84F 32F 5 0% 0.00 in - 0% 0 mhos 4 - Yes - - -
07/05/2015 03:25 Wet 57.6F - 84F 32F 5 0% 0.00 in - 0% 0 mhos 4 - None None - -
07/05/2015 03:20 Wet 57.7F - 84F 32F 5 0% 0.00 in - 0% 0 mhos 4 - Yes - - -
07/05/2015 03:15 Wet 57.6F - 84F 32F 5 0% 0.00 in - 0% 0 mhos 5 - Yes - - -
07/05/2015 03:05 Wet 58.1F - 84F 32F 5 0% 0.00 in - 0% 0 mhos 5 - Yes - - -
07/05/2015 03:05 Wet 58.1F - 84F 32F 5 0% 0.00 in - 0% 0 mhos 5 - Yes - - -
07/05/2015 02:55 Wet 57.7F - 84F 32F 5 0% 0.00 in - 0% 0 mhos 4 - Yes - - -
07/05/2015 02:50 Wet 57.7F - 84F 32F 5 0% 0.00 in - 0% 0 mhos 6 - Yes - - -
07/05/2015 02:45 Wet 57.6F - 84F 32F 5 0% 0.00 in - 0% 0 mhos 6 - Yes - - -
07/05/2015 02:35 Wet 57.7F - 84F 32F 5 0% 0.00 in - 0% 0 mhos 5 - Yes - - -
Date/Time
(MDT)
Sf
Temp Chem Water Layer Surface Precipitation
Sfc Pvt Sub Frz Factor Pct Dpth DpthThk IcePct Cond Salin FI Type Intens Accum Rate
07/05/2015 02:35 Wet 57.7F - 84F 32F 5 0% 0.00 in - 0% 0 mhos 6 - Yes - - -
07/05/2015 02:25 Wet 57.9F - 85F 32F 5 0% 0.00 in - 0% 0 mhos 7 - Yes - - -
07/05/2015 02:20 Wet 57.6F - 84F 32F 5 0% 0.00 in - 0% 0 mhos 7 - Yes - - -
07/05/2015 02:15 Wet 57.7F - 85F 32F 5 0% 0.00 in - 0% 0 mhos 7 - Yes - - -
07/05/2015 02:05 Wet 57.6F - 85F 32F 5 0% 0.00 in - 0% 0 mhos 7 - Yes - - -
07/05/2015 02:05 Wet 57.7F - 85F 32F 5 0% 0.00 in - 0% 0 mhos 7 - Yes - - -
07/05/2015 01:55 Wet 57.7F - 85F 32F 5 0% 0.00 in - 0% 0 mhos 4 - Yes - - -
07/05/2015 01:50 Wet 57.7F - 85F 32F 5 0% 0.00 in - 0% 0 mhos 4 - None None - -
07/05/2015 01:44 Wet 57.9F - 85F 32F 5 0% 0.00 in - 0% 0 mhos 4 - None None - -
07/05/2015 01:35 Wet 58.1F - 85F 32F 5 0% 0.00 in - 0% 0 mhos 4 - None None - -
07/05/2015 01:34 Wet 57.9F - 85F 32F 5 0% 0.00 in - 0% 0 mhos 4 - None None - -
07/05/2015 01:24 Wet 58.3F - 85F 32F 5 0% 0.00 in - 0% 0 mhos 5 - Yes - - -
07/05/2015 01:20 Wet 58.3F - 85F 32F 5 0% 0.00 in - 0% 0 mhos 5 - None None - -
07/05/2015 01:14 Wet 58.3F - 85F 32F 5 0% 0.00 in - 0% 0 mhos 4 - None None - -
07/05/2015 01:05 Wet 58.1F - 85F 32F 5 0% 0.00 in - 0% 0 mhos 5 - Yes - - -
Date/Time
(MDT)
Sf
Temp Chem Water Layer Surface Precipitation
Sfc Pvt Sub Frz Factor Pct Dpth DpthThk IcePct Cond Salin FI Type Intens Accum Rate
07/05/2015 01:04 Wet 57.9F - 85F 32F 5 0% 0.00 in - 0% 0 mhos 5 - Yes - - -
07/05/2015 00:54 Wet 58.1F - 85F 32F 5 0% 0.00 in - 0% 0 mhos 5 - Yes - - -
07/05/2015 00:50 Wet 58.5F - 86F 32F 5 0% 0.00 in - 0% 0 mhos 5 - Yes - - -
07/05/2015 00:44 Wet 58.3F - 86F 32F 5 0% 0.00 in - 0% 0 mhos 4 - None None - -
07/05/2015 00:35 Wet 58.3F - 86F 32F 5 0% 0.00 in - 0% 0 mhos 4 - Yes - - -
07/05/2015 00:34 Wet 58.6F - 86F 32F 5 0% 0.00 in - 0% 0 mhos 4 - Yes - - -
07/05/2015 00:24 Wet 58.5F - 86F 32F 5 0% 0.00 in - 0% 0 mhos 4 - Yes - - -
07/05/2015 00:20 Wet 58.5F - 86F 32F 5 0% 0.00 in - 0% 0 mhos 4 - None None - -
07/05/2015 00:14 Wet 58.6F - 86F 32F 5 0% 0.00 in - 0% 0 mhos 5 - None None - -
07/05/2015 00:05 Wet 58.6F - 86F 32F 5 0% 0.00 in - 0% 0 mhos 5 - Yes - - -
07/05/2015 00:04 Wet 58.8F - 86F 32F 5 0% 0.00 in - 0% 0 mhos 5 - Yes - - -
07/04/2015 23:54 Wet 59.0F - 86F 32F 5 0% 0.00 in - 0% 0 mhos 4 - Yes - - -
07/04/2015 23:50 Wet 59.4F - 86F 32F 5 0% 0.00 in - 0% 0 mhos 4 - None None - -
07/04/2015 23:44 Wet 59.4F - 86F 32F 5 0% 0.00 in - 0% 0 mhos 4 - None None - -
07/04/2015 23:35 Dry 59.9F - 86F - - - - - - 0 mhos 4 - None None - -
Date/Time
(MDT)
Sf
Temp Chem Water Layer Surface Precipitation
Sfc Pvt Sub Frz Factor Pct Dpth DpthThk IcePct Cond Salin FI Type Intens Accum Rate
07/04/2015 23:34 Other - - 86F - - - - - - - - - Yes - - -
07/04/2015 21:06 Dry 78.1F - 86F - - - - - - 0 mhos 0 - None None - -
07/04/2015 20:58 Dry 79.2F - 86F - - - - - - 0 mhos 0 - None None - -
07/04/2015 20:51 Dry 79.7F - 86F - - - - - - 0 mhos 0 - None None - -
07/04/2015 20:48 Dry 79.9F - 86F - - - - - - 0 mhos 0 - None None - -
07/04/2015 20:38 Dry 80.6F - 86F - - - - - - 0 mhos 0 - None None - -
07/04/2015 20:36 Dry 81.0F - 86F - - - - - - 0 mhos 0 - None None - -
07/04/2015 20:28 Dry 81.7F - 86F - - - - - - 0 mhos 0 - None None - -
07/04/2015 20:21 Dry 83.1F - 86F - - - - - - 0 mhos 0 - None None - -
07/04/2015 20:18 Dry 83.3F - 86F - - - - - - 0 mhos 0 - None None - -
07/04/2015 20:08 Dry 80.6F - 86F - - - - - - 0 mhos 1 - None None - -
07/04/2015 20:06 Dry 83.3F - 86F - - - - - - 0 mhos 1 - Yes - - -
07/04/2015 19:58 Dry 88.3F - 86F - - - - - - 0 mhos 0 - None None - -
07/04/2015 19:51 Dry 88.7F - 86F - - - - - - 0 mhos 0 - None None - -
07/04/2015 19:48 Dry 89.1F - 86F - - - - - - 0 mhos 0 - None None - -
Date/Time
(MDT)
Sf
Temp Chem Water Layer Surface Precipitation
Sfc Pvt Sub Frz Factor Pct Dpth DpthThk IcePct Cond Salin FI Type Intens Accum Rate
07/04/2015 19:38 Dry 90.5F - 86F - - - - - - 0 mhos 0 - None None - -
07/04/2015 19:36 Dry 90.7F - 86F - - - - - - 0 mhos 0 - None None - -
07/04/2015 19:28 Dry 92.1F - 86F - - - - - - 0 mhos 0 - None None - -
07/04/2015 19:21 Dry 93.4F - 86F - - - - - - 0 mhos 0 - None None - -
07/04/2015 19:18 Dry 94.1F - 86F - - - - - - 0 mhos 0 - None None - -
07/04/2015 19:07 Dry 96.6F - 86F - - - - - - 0 mhos 0 - None None - -
07/04/2015 19:06 Dry 96.6F - 85F - - - - - - 0 mhos 0 - None None - -
07/04/2015 18:57 Dry 99.1F - 85F - - - - - - 0 mhos 0 - None None - -
07/04/2015 18:51 Dry 102.7F - 85F - - - - - - 0 mhos 0 - None None - -
07/04/2015 18:47 Dry 99.0F - 85F - - - - - - 0 mhos 0 - None None - -
07/04/2015 18:37 Dry 98.6F - 85F - - - - - - 0 mhos 0 - None None - -
07/04/2015 18:36 Dry 98.6F - 85F - - - - - - 0 mhos 0 - None None - -
07/04/2015 18:27 Dry 98.6F - 85F - - - - - - 0 mhos 0 - None None - -
07/04/2015 18:21 Dry 99.3F - 85F - - - - - - 0 mhos 0 - None None - -
07/04/2015 18:17 Dry 99.7F - 85F - - - - - - 0 mhos 0 - None None - -
Date/Time
(MDT)
Sf
Temp Chem Water Layer Surface Precipitation
Sfc Pvt Sub Frz Factor Pct Dpth DpthThk IcePct Cond Salin FI Type Intens Accum Rate
07/04/2015 18:07 Dry 101.5F - 85F - - - - - - 0 mhos 0 - None None - -
07/04/2015 18:06 Dry 101.7F - 85F - - - - - - 0 mhos 0 - None None - -
07/04/2015 17:57 Dry 102.7F - 85F - - - - - - 0 mhos 0 - None None - -
07/04/2015 17:51 Dry 103.8F - 85F - - - - - - 0 mhos 0 - None None - -
07/04/2015 17:47 Dry 104.0F - 85F - - - - - - 0 mhos 0 - None None - -
07/04/2015 17:37 Dry 105.8F - 85F - - - - - - 0 mhos 0 - None None - -
07/04/2015 17:36 Dry 106.2F - 85F - - - - - - 0 mhos 0 - None None - -
07/04/2015 17:27 Dry 107.4F - 85F - - - - - - 0 mhos 0 - None None - -
07/04/2015 17:21 Dry 105.1F - 85F - - - - - - 0 mhos 0 - None None - -
07/04/2015 17:17 Dry 105.1F - 85F - - - - - - 0 mhos 0 - None None - -
07/04/2015 17:07 Dry 106.3F - 84F - - - - - - 0 mhos 0 - None None - -
07/04/2015 17:06 Dry 106.2F - 85F - - - - - - 0 mhos 0 - None None - -
07/04/2015 16:57 Dry 106.9F - 84F - - - - - - 0 mhos 0 - None None - -
07/04/2015 16:51 Dry 108.3F - 84F - - - - - - 0 mhos 0 - None None - -
07/04/2015 16:47 Dry 109.6F - 84F - - - - - - 0 mhos 0 - None None - -
Date/Time
(MDT)
Sf
Temp Chem Water Layer Surface Precipitation
Sfc Pvt Sub Frz Factor Pct Dpth DpthThk IcePct Cond Salin FI Type Intens Accum Rate
07/04/2015 16:37 Dry 111.4F - 84F - - - - - - 0 mhos 0 - None None - -
07/04/2015 16:36 Dry 111.7F - 84F - - - - - - 0 mhos 0 - None None - -
07/04/2015 16:27 Dry 112.5F - 84F - - - - - - 0 mhos 0 - None None - -
07/04/2015 16:21 Dry 114.1F - 84F - - - - - - 0 mhos 0 - None None - -
07/04/2015 16:17 Dry 117.3F - 84F - - - - - - 0 mhos 0 - None None - -
07/04/2015 16:06 Dry 124.2F - 84F - - - - - - 0 mhos 0 - None None - -
07/04/2015 16:06 Dry 123.8F - 84F - - - - - - 0 mhos 0 - None None - -
07/04/2015 15:56 Dry 124.3F - 84F - - - - - - 0 mhos 0 - None None - -
07/04/2015 15:51 Dry 123.3F - 84F - - - - - - 0 mhos 0 - None None - -
07/04/2015 15:46 Dry 124.2F - 84F - - - - - - 0 mhos 0 - None None - -
07/04/2015 15:36 Dry 123.3F - 84F - - - - - - 0 mhos 0 - None None - -
07/04/2015 15:36 Dry 123.4F - 84F - - - - - - 0 mhos 0 - None None - -
07/04/2015 15:26 Dry 119.1F - 84F - - - - - - 0 mhos 0 - None None - -
07/04/2015 15:21 Dry 123.3F - 84F - - - - - - 0 mhos 0 - None None - -
07/04/2015 15:16 Dry 123.8F - 83F - - - - - - 0 mhos 0 - None None - -
Date/Time
(MDT)
Sf
Temp Chem Water Layer Surface Precipitation
Sfc Pvt Sub Frz Factor Pct Dpth DpthThk IcePct Cond Salin FI Type Intens Accum Rate
07/04/2015 15:06 Dry 124.2F - 83F - - - - - - 0 mhos 0 - None None - -
07/04/2015 15:06 Dry 124.3F - 83F - - - - - - 0 mhos 0 - None None - -
07/04/2015 14:56 Dry 123.6F - 83F - - - - - - 0 mhos 0 - None None - -
07/04/2015 14:51 Dry 124.3F - 83F - - - - - - 0 mhos 0 - None None - -
07/04/2015 14:46 Dry 123.4F - 83F - - - - - - 0 mhos 0 - None None - -
07/04/2015 14:36 Dry 124.0F - 83F - - - - - - 0 mhos 0 - None None - -
07/04/2015 14:36 Dry 124.0F - 83F - - - - - - 0 mhos 0 - None None - -
07/04/2015 14:26 Dry 123.3F - 83F - - - - - - 0 mhos 0 - None None - -
07/04/2015 14:21 Dry 122.2F - 83F - - - - - - 0 mhos 0 - None None - -
07/04/2015 14:16 Dry 122.4F - 83F - - - - - - 0 mhos 0 - None None - -
07/04/2015 14:06 Dry 122.0F - 83F - - - - - - 0 mhos 0 - None None - -
07/04/2015 14:06 Dry 122.0F - 83F - - - - - - 0 mhos 0 - None None - -
07/04/2015 13:56 Dry 121.6F - 83F - - - - - - 0 mhos 0 - None None - -
07/04/2015 13:51 Dry 121.1F - 83F - - - - - - 0 mhos 0 - None None - -
07/04/2015 13:46 Dry 120.7F - 83F - - - - - - 0 mhos 0 - None None - -
Date/Time
(MDT)
Sf
Temp Chem Water Layer Surface Precipitation
Sfc Pvt Sub Frz Factor Pct Dpth DpthThk IcePct Cond Salin FI Type Intens Accum Rate
07/04/2015 13:36 Dry 119.3F - 83F - - - - - - 0 mhos 0 - None None - -
07/04/2015 13:36 Dry 120.6F - 83F - - - - - - 0 mhos 0 - None None - -
07/04/2015 13:26 Dry 119.7F - 83F - - - - - - 0 mhos 0 - None None - -
07/04/2015 13:21 Dry 119.5F - 83F - - - - - - 0 mhos 0 - None None - -
07/04/2015 13:16 Dry 118.6F - 83F - - - - - - 0 mhos 0 - None None - -
07/04/2015 13:06 Dry 117.7F - 83F - - - - - - 0 mhos 0 - None None - -
07/04/2015 13:05 Dry 118.2F - 83F - - - - - - 0 mhos 0 - None None - -
07/04/2015 12:55 Dry 116.4F - 83F - - - - - - 0 mhos 0 - None None - -
07/04/2015 12:51 Dry 116.2F - 83F - - - - - - 0 mhos 0 - None None - -
07/04/2015 12:45 Dry 115.7F - 83F - - - - - - 0 mhos 0 - None None - -
07/04/2015 12:36 Dry 115.0F - 83F - - - - - - 0 mhos 0 - None None - -
07/04/2015 12:35 Dry 114.1F - 83F - - - - - - 0 mhos 0 - None None - -
07/04/2015 12:25 Dry 113.2F - 83F - - - - - - 0 mhos 0 - None None - -
07/04/2015 12:21 Dry 113.2F - 83F - - - - - - 0 mhos 0 - None None - -
07/04/2015 12:15 Dry 112.6F - 83F - - - - - - 0 mhos 0 - None None - -
Date/Time
(MDT)
Sf
Temp Chem Water Layer Surface Precipitation
Sfc Pvt Sub Frz Factor Pct Dpth DpthThk IcePct Cond Salin FI Type Intens Accum Rate
07/04/2015 12:06 Dry 110.5F - 83F - - - - - - 0 mhos 0 - None None - -
07/04/2015 12:05 Dry 110.5F - 83F - - - - - - 0 mhos 0 - None None - -
07/04/2015 11:55 Dry 109.9F - 83F - - - - - - 0 mhos 0 - None None - -
07/04/2015 11:51 Dry 108.5F - 83F - - - - - - 0 mhos 0 - None None - -
07/04/2015 11:45 Dry 107.8F - 83F - - - - - - 0 mhos 0 - None None - -
07/04/2015 11:36 Dry 106.7F - 83F - - - - - - 0 mhos 0 - None None - -
07/04/2015 11:35 Dry 106.3F - 83F - - - - - - 0 mhos 0 - None None - -
07/04/2015 11:25 Dry 105.1F - 83F - - - - - - 0 mhos 0 - None None - -
07/04/2015 11:21 Dry 104.4F - 83F - - - - - - 0 mhos 0 - None None - -
07/04/2015 11:15 Dry 103.1F - 83F - - - - - - 0 mhos 0 - None None - -
07/04/2015 11:06 Dry 101.1F - 83F - - - - - - 0 mhos 0 - None None - -
07/04/2015 11:05 Dry 101.7F - 84F - - - - - - 0 mhos 0 - None None - -
07/04/2015 10:55 Dry 100.0F - 84F - - - - - - 0 mhos 0 - None None - -
07/04/2015 10:51 Dry 99.5F - 84F - - - - - - 0 mhos 0 - None None - -
07/04/2015 10:45 Dry 98.1F - 84F - - - - - - 0 mhos 0 - None None - -
Date/Time
(MDT)
Sf
Temp Chem Water Layer Surface Precipitation
Sfc Pvt Sub Frz Factor Pct Dpth DpthThk IcePct Cond Salin FI Type Intens Accum Rate
07/04/2015 10:36 Dry 96.8F - 84F - - - - - - 0 mhos 0 - None None - -
07/04/2015 10:35 Dry 96.8F - 84F - - - - - - 0 mhos 0 - None None - -
07/04/2015 10:25 Dry 95.0F - 84F - - - - - - 0 mhos 0 - None None - -
07/04/2015 10:21 Dry 94.3F - 84F - - - - - - 0 mhos 0 - None None - -
07/04/2015 10:15 Dry 92.8F - 84F - - - - - - 0 mhos 0 - None None - -
07/04/2015 10:06 Dry 91.6F - 84F - - - - - - 0 mhos 0 - None None - -
07/04/2015 10:04 Dry 91.0F - 84F - - - - - - 0 mhos 0 - None None - -
07/04/2015 09:54 Dry 89.1F - 84F - - - - - - 0 mhos 0 - None None - -
07/04/2015 09:51 Dry 88.7F - 84F - - - - - - 0 mhos 0 - None None - -
07/04/2015 09:44 Dry 87.4F - 84F - - - - - - 0 mhos 0 - None None - -
07/04/2015 09:36 Dry 86.4F - 84F - - - - - - 0 mhos 0 - None None - -
07/04/2015 09:34 Dry 85.8F - 84F - - - - - - 0 mhos 0 - None None - -
07/04/2015 09:24 Dry 84.7F - 84F - - - - - - 0 mhos 0 - None None - -
07/04/2015 09:21 Dry 84.4F - 84F - - - - - - 0 mhos 0 - None None - -
07/04/2015 09:14 Dry 83.1F - 84F - - - - - - 0 mhos 0 - None None - -
Date/Time
(MDT)
Sf
Temp Chem Water Layer Surface Precipitation
Sfc Pvt Sub Frz Factor Pct Dpth DpthThk IcePct Cond Salin FI Type Intens Accum Rate
07/04/2015 09:06 Dry 82.6F - 84F - - - - - - 0 mhos 0 - None None - -
07/04/2015 09:04 Dry 82.8F - 85F - - - - - - 0 mhos 0 - None None - -
07/04/2015 08:54 Dry 81.1F - 85F - - - - - - 0 mhos 0 - None None - -
07/04/2015 08:51 Dry 80.6F - 85F - - - - - - 0 mhos 0 - None None - -
07/04/2015 08:44 Dry 79.7F - 85F - - - - - - 0 mhos 0 - None None - -
07/04/2015 08:36 Dry 78.1F - 85F - - - - - - 0 mhos 0 - None None - -
07/04/2015 08:34 Dry 77.7F - 85F - - - - - - 0 mhos 0 - None None - -
07/04/2015 08:24 Dry 76.5F - 85F - - - - - - 0 mhos 0 - None None - -
07/04/2015 08:21 Dry 75.6F - 85F - - - - - - 0 mhos 0 - None None - -
07/04/2015 08:14 Dry 74.5F - 85F - - - - - - 0 mhos 0 - None None - -
07/04/2015 08:06 Dry 74.1F - 85F - - - - - - 0 mhos 0 - None None - -
07/04/2015 08:04 Dry 73.9F - 85F - - - - - - 0 mhos 0 - None None - -
07/04/2015 07:54 Dry 73.4F - 85F - - - - - - 0 mhos 0 - None None - -
07/04/2015 07:51 Dry 72.7F - 85F - - - - - - 0 mhos 0 - None None - -
07/04/2015 07:44 Dry 72.1F - 85F - - - - - - 0 mhos 0 - None None - -
Date/Time
(MDT)
Sf
Temp Chem Water Layer Surface Precipitation
Sfc Pvt Sub Frz Factor Pct Dpth DpthThk IcePct Cond Salin FI Type Intens Accum Rate
07/04/2015 07:36 Dry 71.4F - 85F - - - - - - 0 mhos 0 - None None - -
07/04/2015 07:34 Dry 71.6F - 85F - - - - - - 0 mhos 0 - None None - -
07/04/2015 07:24 Dry 70.7F - 85F - - - - - - 0 mhos 0 - None None - -
07/04/2015 07:21 Dry 70.5F - 85F - - - - - - 0 mhos 0 - None None - -
Change End Date:

Copyright © 1998-2015 Vaisala, Inc.
All Rights Reserved
Send comments about the data to:
SCAN Web ® is a registered trademark of Vaisala, Inc.
SCAN Web Version 6.0